Location: Observatoire de Paris
(48.8363°N, 2.3365°E)
Time: 03:52:21
(UTC+01:00)

deb Explorer IX - All Passes

Search period start: 06 August 2021 00:00
Search period end: 16 August 2021 00:00
Orbit: 544 x 1093 km, 38.8° (Epoch: 03 August)

Date Brightness Start Highest point End Pass type
(mag) Time Alt. Az. Time Alt. Az. Time Alt. Az.
06 Aug - 12:53:28 10° SW 12:56:56 22° SSE 13:00:45 10° ESE daylight
06 Aug - 14:38:58 10° WSW 14:42:54 25° S 14:47:18 10° SE daylight
06 Aug - 16:25:47 10° WSW 16:28:55 16° SSW 16:32:18 10° SSE daylight
07 Aug - 12:29:31 10° SW 12:32:51 21° SSE 12:36:28 10° ESE daylight
07 Aug - 14:15:02 10° WSW 14:18:47 24° S 14:22:59 10° SE daylight
07 Aug - 16:01:52 10° SW 16:04:46 15° SSW 16:07:53 10° SSE daylight
08 Aug - 12:05:33 10° SW 12:08:46 21° SSE 12:12:13 10° ESE daylight
08 Aug - 13:51:04 10° WSW 13:54:40 23° S 13:58:40 10° SE daylight
08 Aug - 15:37:58 10° SW 15:40:37 14° SSW 15:43:27 10° S daylight
09 Aug - 11:41:35 10° SW 11:44:40 20° SSE 11:47:58 10° ESE daylight
09 Aug - 13:27:06 10° WSW 13:30:34 22° S 13:34:22 10° SE daylight
09 Aug - 15:14:05 10° SW 15:16:29 14° SSW 15:19:01 10° S daylight
10 Aug - 11:17:35 10° SW 11:20:35 19° SSE 11:23:45 10° ESE daylight
10 Aug - 13:03:07 10° SW 13:06:27 22° S 13:10:04 10° SE daylight
10 Aug - 14:50:12 10° SW 14:52:20 13° SSW 14:54:35 10° S daylight
11 Aug - 10:53:34 10° SW 10:56:29 19° S 10:59:32 10° ESE daylight
11 Aug - 12:39:07 10° SW 12:42:20 21° S 12:45:48 10° SE daylight
11 Aug - 14:26:20 10° SW 14:28:11 12° SSW 14:30:08 10° S daylight
12 Aug - 10:29:30 10° SW 10:32:23 19° S 10:35:21 10° SE daylight
12 Aug - 12:15:07 10° SW 12:18:14 20° S 12:21:32 10° SE daylight
12 Aug - 14:02:29 10° SW 14:04:03 12° SSW 14:05:41 10° S daylight
13 Aug - 10:05:25 10° SW 10:08:17 18° S 10:11:11 10° SE daylight
13 Aug - 11:51:05 10° SW 11:54:07 20° S 11:57:18 10° SE daylight
13 Aug - 13:38:38 10° SW 13:39:55 11° SSW 13:41:12 10° S daylight
14 Aug - 09:41:18 10° SW 09:44:10 18° S 09:47:02 10° SE daylight
14 Aug - 11:27:01 10° SW 11:29:59 19° S 11:33:05 10° SE daylight
14 Aug - 13:14:50 10° SW 13:15:45 11° SSW 13:16:42 10° S daylight
15 Aug - 09:17:09 10° SW 09:20:03 18° S 09:22:54 10° SE daylight
15 Aug - 11:02:56 10° SW 11:05:53 19° S 11:08:53 10° SE daylight
15 Aug - 12:51:08 10° SSW 12:51:37 10° SSW 12:52:05 10° SSW daylight
